Weather in Yam

Russia / Yaroslavl Oblast     57°54′51″N   40°00′39″E
temp.,
°C
wind,
m/s
gust,
m/s
humid.,
%
clouds,
%
prec.,
mm/h
press.,
hPa
HPBL,
m
23 september, thu
thu2300:00+6ese3898100 0.1 1017388
03:00+6e3899100 0.1 1017360
06:00+7e3898100 0.0 1018261
09:00+8e4895100 0.0 1017451
12:00+9e4891100 0.1 1016566
15:00+9e4986100 0.1 1015813
18:00+9ese51194100 0.1 1013787
21:00+9ese41093100 0.2 1011548
24 september, fri
fri2400:00+9se41093100 0.1 1010543
03:00+8se4896100 0.2 1008471
06:00+8sse3798100 0.1 1007483
09:00+9sse379482 0.4 1006538
12:00+10sse487961 0.6 1006918
15:00+11s597132 1.3 10061328
18:00+8sse498048 0.1 1007521
21:00+5se399467 0.1 1008204
25 september, sat
sat2500:00+6se3990100 0.0 1008243
03:00+6ese2788100 0.0 1008226
06:00+6se2593100 0.0 1008111
09:00+8se2883100 0.0 1008349
12:00+10sse3771100 0.0 1008568
15:00+11sse3771100 0.0 1008687
18:00+9sse2778100 0.0 1008299
21:00+9sse3980100 0.1 1008342
26 september, sun
sun2600:00+8sse2888100 0.2 1008255
03:00+8se379288 0.2 1008237
06:00+7se2594100 0.0 1008166
09:00+8ese2388100 0.0 1009175
12:00+11ese347894 0.3 1010646
15:00+10ene357998 0.7 1013545
18:00+9nne3791100 0.1 1015237
21:00+7nne399350 0.2 1018297
27 september, mon
mon2700:00+8n3981100 0.0 1019391
03:00+7n41090100 0.0 1021447
06:00+7n41193100 0.0 1022487
09:00+8nne4989100 0.0 1023533
12:00+8nne488898 0.0 1025579
15:00+9nne4788100 0.1 1026566
18:00+8nne4893100 0.2 1027469
21:00+8nne3893100 0.2 1028440